• în România
  • Lista ţărilor
  • Pe 7 zile
  • Temperatura apei
  • Hartă satelitară
  • Meteo pe hartă
  • Widget-uri
  • user-avatar
    Intrare

    Meteo pe oră la Uige

    Astăzi, 30 Aprilie, Duminică

    Timp Temperatura Precipitaţii Vânt Presiune Umiditate
    00:00 +22°C° 0 mm 1 m/s 691 mmHg 86%
    01:00 +22°C° 0 mm 1 m/s 691 mmHg 87%
    02:00 +21°C° 0 mm 1 m/s 691 mmHg 87%
    03:00 +21°C° 0 mm 1 m/s 691 mmHg 87%
    04:00 +21°C° 0 mm 1 m/s 691 mmHg 87%
    05:00 +21°C° 0 mm 1 m/s 691 mmHg 86%
    06:00 +22°C° 0 mm 1 m/s 691 mmHg 85%
    07:00 +22°C° 0 mm 1 m/s 692 mmHg 85%
    08:00 +25°C° 0 mm 2 m/s 692 mmHg 75%
    09:00 +27°C° 0 mm 3 m/s 693 mmHg 65%
    10:00 +30°C° 0 mm 4 m/s 693 mmHg 55%
    11:00 +32°C° 0 mm 4 m/s 693 mmHg 52%
    12:00 +31°C° 0 mm 3 m/s 692 mmHg 48%
    13:00 +33°C° 0 mm 3 m/s 692 mmHg 45%
    14:00 +33°C° 0 mm 3 m/s 691 mmHg 47%
    15:00 +32°C° 0 mm 2 m/s 691 mmHg 49%
    16:00 +31°C° 0 mm 2 m/s 690 mmHg 51%
    17:00 +29°C° 0 mm 2 m/s 690 mmHg 57%
    18:00 +27°C° 0 mm 2 m/s 690 mmHg 64%
    19:00 +25°C° 0 mm 2 m/s 690 mmHg 71%
    20:00 +24°C° 0 mm 2 m/s 691 mmHg 72%
    21:00 +23°C° 0 mm 2 m/s 691 mmHg 73%
    22:00 +23°C° 0 mm 2 m/s 692 mmHg 74%
    23:00 +21°C° 0 mm 2 m/s 691 mmHg 75%

    Mâine, 1 Mai, Luni

    Timp Temperatura Precipitaţii Vânt Presiune Umiditate
    00:00 +21°C° 0 mm 2 m/s 691 mmHg 75%
    01:00 +21°C° 0 mm 2 m/s 691 mmHg 75%
    02:00 +20°C° 0 mm 2 m/s 691 mmHg 75%
    03:00 +20°C° 0 mm 2 m/s 690 mmHg 75%
    04:00 +20°C° 0 mm 2 m/s 690 mmHg 75%
    05:00 +20°C° 0 mm 2 m/s 690 mmHg 75%
    06:00 +20°C° 0 mm 2 m/s 691 mmHg 75%
    07:00 +21°C° 0 mm 2 m/s 691 mmHg 75%
    08:00 +24°C° 0 mm 3 m/s 692 mmHg 68%
    09:00 +27°C° 0 mm 3 m/s 692 mmHg 60%
    10:00 +30°C° 0 mm 4 m/s 693 mmHg 53%
    11:00 +30°C° 0 mm 4 m/s 693 mmHg 50%
    12:00 +31°C° 0 mm 3 m/s 692 mmHg 47%
    13:00 +33°C° 0 mm 3 m/s 691 mmHg 44%
    14:00 +33°C° 0 mm 3 m/s 691 mmHg 46%
    15:00 +31°C° 0 mm 2 m/s 690 mmHg 48%
    16:00 +31°C° 0 mm 2 m/s 690 mmHg 50%
    17:00 +29°C° 0 mm 2 m/s 690 mmHg 57%
    18:00 +27°C° 0 mm 2 m/s 690 mmHg 63%
    19:00 +25°C° 0 mm 2 m/s 690 mmHg 70%
    20:00 +24°C° 0 mm 2 m/s 691 mmHg 71%
    21:00 +24°C° 0 mm 2 m/s 691 mmHg 72%
    22:00 +23°C° 0 mm 2 m/s 691 mmHg 73%
    23:00 +23°C° 0 mm 2 m/s 691 mmHg 72%

    Poimâine, 2 Mai, Marţi

    Timp Temperatura Precipitaţii Vânt Presiune Umiditate
    00:00 +21°C° 0 mm 2 m/s 691 mmHg 72%
    01:00 +21°C° 0 mm 2 m/s 690 mmHg 72%
    02:00 +21°C° 0 mm 2 m/s 690 mmHg 71%
    03:00 +21°C° 0 mm 2 m/s 690 mmHg 70%
    04:00 +20°C° 0 mm 2 m/s 689 mmHg 69%
    05:00 +21°C° 0 mm 2 m/s 690 mmHg 69%
    06:00 +21°C° 0 mm 2 m/s 690 mmHg 70%
    07:00 +21°C° 0 mm 2 m/s 691 mmHg 70%
    08:00 +25°C° 0 mm 3 m/s 692 mmHg 63%
    09:00 +27°C° 0 mm 3 m/s 692 mmHg 56%
    10:00 +30°C° 0 mm 4 m/s 693 mmHg 49%
    11:00 +31°C° 0 mm 3 m/s 692 mmHg 47%
    12:00 +33°C° 0 mm 3 m/s 692 mmHg 45%
    13:00 +33°C° 0 mm 3 m/s 691 mmHg 43%
    14:00 +33°C° 0 mm 3 m/s 690 mmHg 46%
    15:00 +31°C° 0 mm 2 m/s 690 mmHg 48%
    16:00 +31°C° 0 mm 2 m/s 690 mmHg 51%
    17:00 +29°C° 0 mm 2 m/s 690 mmHg 58%
    18:00 +27°C° 0 mm 2 m/s 690 mmHg 64%
    19:00 +25°C° 0 mm 2 m/s 690 mmHg 71%
    20:00 +24°C° 0 mm 2 m/s 691 mmHg 71%
    21:00 +24°C° 0 mm 2 m/s 691 mmHg 72%
    22:00 +23°C° 0 mm 2 m/s 691 mmHg 73%
    23:00 +23°C° 0 mm 2 m/s 691 mmHg 73%

    3 Mai, Miercuri

    Timp Temperatura Precipitaţii Vânt Presiune Umiditate
    00:00 +21°C° 0 mm 2 m/s 691 mmHg 73%
    01:00 +21°C° 0 mm 2 m/s 690 mmHg 73%
    02:00 +21°C° 0 mm 2 m/s 690 mmHg 74%
    03:00 +21°C° 0 mm 1 m/s 690 mmHg 74%
    04:00 +21°C° 0 mm 1 m/s 689 mmHg 75%
    05:00 +21°C° 0 mm 1 m/s 690 mmHg 75%
    06:00 +21°C° 0 mm 2 m/s 690 mmHg 74%
    07:00 +21°C° 0 mm 2 m/s 691 mmHg 74%
    08:00 +25°C° 0 mm 2 m/s 691 mmHg 65%
    09:00 +28°C° 0 mm 3 m/s 692 mmHg 57%
    10:00 +31°C° 0 mm 3 m/s 693 mmHg 48%
    11:00 +31°C° 0 mm 3 m/s 692 mmHg 47%
    12:00 +33°C° 0 mm 3 m/s 691 mmHg 45%
    13:00 +33°C° 0 mm 3 m/s 691 mmHg 43%
    14:00 +32°C° 0,2 mm 2 m/s 690 mmHg 46%
    15:00 +31°C° 0,2 mm 2 m/s 690 mmHg 48%
    16:00 +31°C° 0,2 mm 2 m/s 689 mmHg 51%
    17:00 +29°C° 0,1 mm 2 m/s 690 mmHg 58%
    18:00 +27°C° 0,1 mm 2 m/s 690 mmHg 65%
    19:00 +24°C° 0,1 mm 2 m/s 690 mmHg 72%
    20:00 +24°C° 0,1 mm 2 m/s 690 mmHg 73%
    21:00 +23°C° 0,1 mm 2 m/s 691 mmHg 75%
    22:00 +23°C° 0,1 mm 2 m/s 691 mmHg 76%
    23:00 +22°C° 0 mm 1 m/s 691 mmHg 77%

    4 Mai, Joi

    Timp Temperatura Precipitaţii Vânt Presiune Umiditate
    00:00 +22°C° 0 mm 1 m/s 690 mmHg 78%
    01:00 +21°C° 0 mm 1 m/s 690 mmHg 79%
    02:00 +21°C° 0 mm 1 m/s 690 mmHg 80%
    03:00 +20°C° 0 mm 1 m/s 689 mmHg 82%
    04:00 +20°C° 0 mm 1 m/s 689 mmHg 83%
    05:00 +20°C° 0 mm 1 m/s 690 mmHg 81%
    06:00 +21°C° 0 mm 1 m/s 690 mmHg 79%
    07:00 +22°C° 0 mm 1 m/s 691 mmHg 77%
    08:00 +25°C° 0 mm 2 m/s 691 mmHg 67%
    09:00 +28°C° 0 mm 2 m/s 692 mmHg 58%
    10:00 +30°C° 0 mm 3 m/s 693 mmHg 49%
    11:00 +31°C° 0 mm 3 m/s 692 mmHg 46%
    12:00 +33°C° 0 mm 3 m/s 691 mmHg 43%
    13:00 +34°C° 0 mm 3 m/s 691 mmHg 40%
    14:00 +32°C° 0 mm 2 m/s 690 mmHg 43%
    15:00 +32°C° 0 mm 2 m/s 690 mmHg 45%
    16:00 +32°C° 0 mm 2 m/s 689 mmHg 47%
    17:00 +30°C° 0 mm 2 m/s 689 mmHg 53%
    18:00 +27°C° 0 mm 2 m/s 690 mmHg 60%
    19:00 +25°C° 0 mm 2 m/s 690 mmHg 67%
    20:00 +25°C° 0 mm 2 m/s 690 mmHg 68%
    21:00 +24°C° 0 mm 2 m/s 690 mmHg 69%
    22:00 +23°C° 0 mm 2 m/s 691 mmHg 70%
    23:00 +23°C° 0 mm 2 m/s 690 mmHg 70%

    5 Mai, Vineri

    Timp Temperatura Precipitaţii Vânt Presiune Umiditate
    00:00 +21°C° 0 mm 2 m/s 690 mmHg 71%
    01:00 +21°C° 0 mm 2 m/s 689 mmHg 72%
    02:00 +22°C° 0 mm 1 m/s 689 mmHg 71%
    03:00 +21°C° 0 mm 1 m/s 689 mmHg 71%
    04:00 +21°C° 0 mm 1 m/s 689 mmHg 71%
    05:00 +21°C° 0 mm 1 m/s 689 mmHg 70%
    06:00 +22°C° 0 mm 1 m/s 690 mmHg 70%
    07:00 +21°C° 0 mm 2 m/s 691 mmHg 69%
    08:00 +25°C° 0 mm 2 m/s 691 mmHg 62%
    09:00 +28°C° 0 mm 3 m/s 692 mmHg 54%
    10:00 +30°C° 0 mm 3 m/s 692 mmHg 46%
    11:00 +31°C° 0 mm 3 m/s 691 mmHg 44%
    12:00 +33°C° 0 mm 3 m/s 691 mmHg 41%
    13:00 +34°C° 0 mm 3 m/s 690 mmHg 39%
    14:00 +34°C° 0 mm 3 m/s 690 mmHg 41%
    15:00 +32°C° 0 mm 2 m/s 690 mmHg 43%
    16:00 +32°C° 0 mm 2 m/s 689 mmHg 45%
    17:00 +30°C° 0 mm 2 m/s 689 mmHg 51%
    18:00 +27°C° 0 mm 2 m/s 690 mmHg 58%
    19:00 +25°C° 0 mm 2 m/s 690 mmHg 64%
    20:00 +25°C° 0 mm 2 m/s 690 mmHg 65%
    21:00 +24°C° 0 mm 2 m/s 690 mmHg 66%
    22:00 +23°C° 0 mm 2 m/s 691 mmHg 67%
    23:00 +23°C° 0 mm 2 m/s 690 mmHg 67%
    Arată mai mult